Voltar ao catálogo

STARLINK-5250

AtivoComunicaçõesVLEO
NORAD 54200·PAYLOAD·🇺🇸 United States

Lançado Oct 28, 2022 de Vandenberg Space Force Base

Loading…

Próximas Passagens (próximas 24 horas)

TLE

AtualizadoSource: CelesTrak SupGP

Época: Sep 14, 2026, 14:04 UTC

1 54200C 22141AV  26257.58659722 -.00024999  00000+0 -71510-3 0  2575
2 54200  53.1577 215.6822 0001263  97.4494 307.9862 15.35416925    13

Acompanhe STARLINK-5250 em tempo real com AllMySat

Download on the App Store